TIANWANG 1B (TW-1B)
1 40927U 15051C   19196.52815978  .00008540  00000-0  13094-3 0  9992
2 40927  97.1370 241.9874 0006056 284.4005 213.6905 15.54541641214184
TIANWANG 1A (TW-1A)
1 40928U 15051D   19196.51764818  .00002712  00000-0  67898-4 0  9995
2 40928  97.1441 227.2273 0010438 345.3634 148.7424 15.40890884213306
LAPAN A2
1 40931U 15052B   19196.36629905  .00000472  00000-0 -23348-4 0  9994
2 40931   6.0017 226.3660 0012725 176.3338 183.7258 14.76608837205210
LQSAT
1 40958U 15057A   19196.19083747 -.00000040  00000-0  13938-5 0  9993
2 40958  97.8975 264.6706 0018873 152.5161 207.7050 14.73083612202709
CHUBUSAT 2
1 41338U 16012B   19196.50638506  .00000232  00000-0  11320-4 0  9996
2 41338  31.0041 334.3603 0013811   7.9941 352.0913 15.00158502186944
CHUBUSAT 3
1 41339U 16012C   19196.53927138  .00000252  00000-0  12865-4 0  9999
2 41339  31.0121 332.2107 0013808  16.0040 344.1026 15.00333985186944
OUFTI-1
1 41458U 16025C   19195.70328515 +.00000419 +00000-0 +26050-4 0  9993
2 41458 098.1024 283.8695 0164856 269.6220 088.6114 15.05843707176480
E-STAR-2
1 41459U 16025D   19196.19117319  .00001268  00000-0  69247-4 0  9994
2 41459  98.1022 284.0273 0166726 269.2589  88.9546 15.05483579176531
AAUSAT 4
1 41460U 16025E   19196.46578152  .00000904  00000-0  49787-4 0  9995
2 41460  98.0961 285.6238 0156385 260.7937  97.5576 15.07370234176708
NUSAT 1
1 41557U 16033B   19196.51437398  .00000904  00000-0  36581-4 0  9991
2 41557  97.4183 283.8590 0013316 196.3825 163.6985 15.27249061174185
BEESAT 4
1 41619U 16040W   19195.85908773 +.00000901 +00000-0 +41053-4 0  9991
2 41619 097.3660 257.5941 0009697 295.4349 064.5884 15.23166295157844
PRATHAM
1 41783U 16059A   19196.13607972  .00000016  00000-0  12527-4 0  9993
2 41783  98.0658 255.1321 0032329 302.1338  57.6728 14.62999137149414
ALSAT 1N
1 41789U 16059G   19196.17054021  .00000036  00000-0  15879-4 0  9999
2 41789  98.0681 257.2166 0027147 291.2437  68.5866 14.64249230149526
NAYIF 1
1 42017U 17008BX  19196.32808595  .00001067  00000-0  44842-4 0  9996
2 42017  97.4019 263.1468 0007923  79.4617 280.7513 15.25573293133983
MAX VALIER SAT
1 42778U 17036P   19196.22077575  .00000698  00000-0  33477-4 0  9997
2 42778  97.3528 253.3012 0013859 126.8935 233.3574 15.22043814114272
